Home > Weather > Hopedale > Past weeks

Flag for Canada Past Weather in Hopedale, Newfoundland and Labrador, Canada — Yesterday and Last 2 Weeks

Now
54 °F

Cool.


Feels Like: 48 °F
Forecast: 40 / 54 °F
Wind: 21 mph from North

Location: Hopedale

Current Time: Jun 24, 2016 at 9:06:21 PM

Latest Report: Jun 24, 2016 at 8:00 PM


Visibility: N/A

Pressure: 29.76 "Hg

Humidity: 73%

Dew Point: 45 °F

Location of HopedaleLocation

Past Weather in Hopedale — Graph

°F

Hopedale Temperature Yesterday

Maximum temperature yesterday: 63 °F (at 3:00 PM)
Minimum temperature yesterday: 47 °F (at 3:00 AM)
Average temperature yesterday: 55 °F

High & Low Weather Summary for the Past Weeks

 TemperatureHumidityPressure
High67 °F (Jun 19, 11:00 AM)100% (Jun 9, 10:00 PM)30.16 "Hg (Jun 9, 10:00 PM)
Low31 °F (Jun 11, 6:00 AM)36% (Jun 23, 3:00 PM)29.15 "Hg (Jun 21, 4:00 PM)
Average44 °F83%29.80 "Hg
* Reported Jun 9 8:00 PM — Jun 24 8:00 PM, Hopedale, Weather by CustomWeather, © 2016

Note: Actual official high and low records may vary slightly from our data, if they occured in-between our weather recording intervals... More about our weather records

Advertising

Hopedale Weather History for the Previous 24 Hours

Scroll right to see more
 ConditionsComfort  
Time TempWeatherWind HumidityBarometerVisibility
8:00 PM
Fri, Jun 24
54 °FCool.21 mph73%29.76 "HgN/A
7:00 PM53 °FCool.5 mph76%29.75 "HgN/A
6:00 PM56 °FCool.6 mph62%29.75 "HgN/A
5:00 PM54 °FCool.16 mph73%29.75 "HgN/A
4:00 PM56 °FCool.10 mph61%29.74 "HgN/A
3:00 PM52 °FCool.16 mph79%29.73 "HgN/A
2:00 PM53 °FCool.16 mph73%29.72 "HgN/A
1:00 PM54 °FCool.7 mph65%29.70 "HgN/A
12:00 PM52 °FCool.2 mph69%29.72 "HgN/A
11:00 AM54 °FCool.3 mph66%29.72 "HgN/A
10:00 AM54 °FCool.41 mph63%29.72 "HgN/A
9:00 AM53 °FCool.39 mph60%29.72 "HgN/A
8:00 AM53 °FCool.38 mph59%29.70 "HgN/A
7:00 AM52 °FCool.37 mph61%29.68 "HgN/A
6:00 AM50 °FCool.37 mph63%29.68 "HgN/A
5:00 AM51 °FCool.37 mph63%29.68 "HgN/A
4:00 AM51 °FCool.38 mph64%29.67 "HgN/A
3:00 AM52 °FCool.37 mph63%29.67 "HgN/A
2:00 AM53 °FCool.37 mph62%29.65 "HgN/A
1:00 AM47 °FCool.7 mph92%29.67 "HgN/A
12:00 AM48 °FCool.31 mph88%29.68 "HgN/A
11:00 PM
Thu, Jun 23
50 °FCool.25 mph77%29.68 "HgN/A
10:00 PM49 °FCool.2 mph83%29.67 "HgN/A
9:00 PM55 °FCool.1 mph59%29.67 "HgN/A
Weather by CustomWeather, © 2016

See weather overviewHow to use our weather pages